This is the latest recevied weather packets stored in our database for station/object KI5RAB. If no packets are shown the sender has not sent any weather packets the latest 10 day(s).
| Time | Temp. | Humidity | Pressure | Rain* | Wind** | Luminosity | Snow |
|---|---|---|---|---|---|---|---|
| 1777575938 | 21.11° C | 82% | 1014.5 hPa | 0 mm | - | 129 W/m² | - |
| 1777575634 | 21.67° C | 82% | 1014.5 hPa | 0 mm | - | 123 W/m² | - |
| 1777575330 | 21.67° C | 83% | 1014.6 hPa | 0 mm | - | 102 W/m² | - |
| 1777575026 | 21.67° C | 82% | 1014.7 hPa | 0 mm | - | 145 W/m² | - |
| 1777574722 | 21.67° C | 82% | 1014.6 hPa | 0 mm | - | 159 W/m² | - |
| 1777574420 | 22.22° C | 81% | 1014.5 hPa | 0 mm | - | 197 W/m² | - |
| 1777574115 | 21.67° C | 81% | 1014.3 hPa | 0 mm | - | 245 W/m² | - |
| 1777573811 | 21.67° C | 82% | 1014.4 hPa | 0 mm | - | 300 W/m² | - |
| 1777573506 | 21.67° C | 82% | 1014.3 hPa | 0 mm | - | 269 W/m² | - |
| 1777573203 | 21.67° C | 82% | 1014.4 hPa | 0 mm | - | 270 W/m² | - |
| 1777572899 | 21.67° C | 81% | 1014.5 hPa | 0 mm | - | 236 W/m² | - |
| 1777572595 | 21.67° C | 81% | 1014.6 hPa | 0 mm | - | 199 W/m² | - |
| 1777572295 | 21.67° C | 82% | 1014.2 hPa | 0 mm | - | 195 W/m² | - |
| 1777571991 | 21.11° C | 82% | 1014.5 hPa | 0 mm | - | 170 W/m² | - |
| 1777571685 | 21.11° C | 83% | 1014.6 hPa | 0 mm | - | 168 W/m² | - |
| 1777571384 | 21.11° C | 83% | 1014.6 hPa | 0 mm | - | 207 W/m² | - |
| 1777571080 | 21.11° C | 83% | 1014.7 hPa | 0 mm | - | 174 W/m² | - |
| 1777570775 | 21.11° C | 83% | 1014.8 hPa | 0 mm | - | 213 W/m² | - |
| 1777570472 | 20.56° C | 83% | 1014.9 hPa | 0 mm | - | 163 W/m² | - |
| 1777570168 | 20.56° C | 84% | 1014.9 hPa | 0 mm | - | 122 W/m² | - |
| 1777569864 | 20.56° C | 82% | 1014.7 hPa | 0 mm | - | 191 W/m² | - |
| 1777569560 | 20.56° C | 82% | 1015 hPa | 0 mm | - | 241 W/m² | - |
| 1777569257 | 20.56° C | 82% | 1015.4 hPa | 0 mm | - | 289 W/m² | - |
| 1777568953 | 20° C | 84% | 1015.4 hPa | 0 mm | - | 201 W/m² | - |
| 1777568650 | 20° C | 84% | 1015.5 hPa | 0 mm | - | 224 W/m² | - |
* Rain latest hour (hover to see other rain measurements)
** Current wind speed in m/s (hover to see current wind gust speed)